Regional Weather Roundup
Issued by NWS

Home | Current Version | Previous Version | Text Only | Print | Product List | Glossary Off
Versions: 1 2 3 4 5 6 7 8 9 10 11 12 13 14 15 16 17 18 19 20 21 22 23 24 25 26 27 28 29 30 31 32 33 34 35 36 37 38 39 40 41 42 43 44 45 46 47 48 49 50

347
ASUS43 KMKX 230820
RWRWI

WISCONSIN REGIONAL WEATHER ROUNDUP
NATIONAL WEATHER SERVICE MILWAUKEE/SULLIVAN WI
300 AM CDT MON APR 23 2018

NOTE: "FAIR" INDICATES FEW OR NO CLOUDS BELOW 12,000 FEET WITH NO
SIGNIFICANT WEATHER AND/OR OBSTRUCTIONS TO VISIBILITY.

WIZ001-002-006>008-014>016-023>028-230900-
NORTHWEST WISCONSIN

CITY           SKY/WX    TMP DP  RH WIND       PRES   REMARKS
SUPERIOR ARPT  FAIR      28  26  92 CALM      30.23F
ASHLAND        FAIR      38  25  59 SW5       30.23F WCI  34
HAYWARD        FAIR      29  26  89 N3        30.25S
SIREN          FAIR      34  28  80 CALM      30.24S
CUMBERLAND     FAIR      34  27  75 CALM      30.25S
RICE LAKE      FAIR      33  32  95 CALM      30.28S
CHETEK         FAIR      32  28  82 CALM      30.26F
LADYSMITH      FAIR      34  27  75 CALM      30.28S
EAU CLAIRE     FAIR      35  24  64 N3        30.25S
MENOMONIE      FAIR      38  32  78 CALM      30.25F
NEW RICHMOND   FAIR      34  31  88 CALM      30.25S
OSCEOLA        FAIR      34  31  88 CALM      30.28S
$$

WIZ003>005-009-010-017-018-230900-
NORTH CENTRAL WISCONSIN

CITY           SKY/WX    TMP DP  RH WIND       PRES   REMARKS
MANITOWISH WTR FAIR      30  24  78 CALM      30.25S
ARBOR VITAE    FAIR      34  22  62 CALM      30.26S
WOODRUFF       FAIR      34  22  62 CALM      30.26S
RHINELANDER    FAIR      32  20  61 CALM      30.27S
EAGLE RIVER    FAIR      28  20  74 CALM      30.26F
LAND O LAKES   FAIR      27  22  80 CALM      30.28S
PHILLIPS       FAIR      30  27  90 CALM      30.26S
TOMAHAWK       FAIR      27  21  78 CALM      30.28S
MEDFORD        FAIR      31  23  72 CALM      30.26S
MERRILL          N/A     28  22  79 CALM      30.28S
$$

WIZ029-030-035-036-043>047-230900-
CENTRAL WISCONSIN

CITY           SKY/WX    TMP DP  RH WIND       PRES   REMARKS
WAUSAU         FAIR      31  23  72 E3        30.26S
MOSINEE        FAIR      37  25  60 E5        30.28S WCI  34
MARSHFIELD     FAIR      38  24  57 NE3       30.26S
STEVENS POINT  FAIR      27  23  84 CALM      30.29S
WAUPACA        FAIR      31  27  87 N3        30.29S
WAUTOMA        FAIR      29  27  92 CALM      30.28F
WISC RAPIDS    FAIR      33  24  69 CALM      30.28S
CAMP DOUGLAS   FAIR      28  27  94 CALM      30.26S
$$

WIZ011>013-019>022-031-037>040-048>050-230900-
NORTHEAST WISCONSIN

CITY           SKY/WX    TMP DP  RH WIND       PRES   REMARKS
ANTIGO         FAIR      32  27  80 CALM      30.28S
SHAWANO        FAIR      31  27  86 CALM      30.29S
OCONTO         FAIR      29  26  88 CALM      30.29F
STURGEON BAY   FAIR      40  16  37 E6        30.30
GREEN BAY      FAIR      33  27  78 CALM      30.29S
MANITOWOC      FAIR      33  27  78 CALM      30.29F
APPLETON       FAIR      37  19  48 CALM      30.26F
CLINTONVILLE   FAIR      29  25  84 CALM      30.29S
OSHKOSH        FAIR      38  27  64 CALM      30.27F
$$

WIZ032>034-041-042-053>061-230900-
SOUTHWEST WISCONSIN

CITY           SKY/WX    TMP DP  RH WIND       PRES   REMARKS
LA CROSSE      FAIR      40  30  67 CALM      30.26S
SPARTA         FAIR      29  25  86 CALM      30.28S
VIROQUA        FAIR      41  30  64 E7        30.25S
BOSCOBEL       FAIR      35  30  82 CALM      30.26S
PRAIRIE DU CHI FAIR      39  30  71 CALM      30.25S
PLATTEVILLE    FAIR      43  29  59 NE9       30.24S
$$

WIZ056-057-062-063-064-067-068-230900-
SOUTH CENTRAL WISCONSIN

CITY           SKY/WX    TMP DP  RH WIND       PRES   REMARKS
REEDSBURG      FAIR      35  31  86 CALM      30.26S
BARABOO/DELLS  FAIR      33  27  78 CALM      30.26S
LONE ROCK      FAIR      33  31  92 CALM      30.26S
MINERAL POINT  FAIR      45  27  49 E8        30.24S
MADISON        FAIR      36  28  73 W3        30.26R
MIDDLETON      FAIR      37  32  83 CALM      30.26S
WATERTOWN      FAIR      35  27  73 CALM      30.26S
MONROE         FAIR      41  27  56 NE8       30.23F
JANESVILLE     FAIR      39  28  65 CALM      30.24F
$$

WIZ051-052-058>065-066-070>072-230900-
SOUTHEAST WISCONSIN

CITY           SKY/WX    TMP DP  RH WIND       PRES   REMARKS
MILWAUKEE      FAIR      40  29  64 N3        30.27R
WAUKESHA       FAIR      37  21  52 CALM      30.27S
MILWAUKEE/TIMM FAIR      36  23  60 CALM      30.28R
RACINE         FAIR      36  29  75 N6        30.26F WCI  31
BURLINGTON     FAIR      34  24  67 N5        30.24F WCI  30
KENOSHA        FAIR      39  27  62 N7        30.23F WCI  34
FOND DU LAC    FAIR      37  25  61 CALM      30.27F
SHEBOYGAN      FAIR      36  24  62 N5        30.27F WCI  32
WEST BEND      FAIR      32  30  93 CALM      30.27S
JUNEAU         FAIR      38  25  58 NE6       30.27S WCI  34
$$

LSZ147-162-230900-
LAKE SUPERIOR

STATION/POSITION TIME  TEMP    WIND        PRES    WAVE
                       AIR SEA DIR/SP/G            HT/PER
                 (UTC) (F)     (DEG/KT/KT) (MB)    (FT/S)
DEVILS ISLAND    0800   44     210/  9/ 10 1023.8F
SAXON HARBOR     0740   36     190/  4/  7 1023.0F
$$

LMZ867-665-643>646-230900-
LAKE MICHIGAN

STATION/POSITION TIME  TEMP    WIND        PRES    WAVE
                       AIR SEA DIR/SP/G            HT/PER
                 (UTC) (F)     (DEG/KT/KT) (MB)    (FT/S)
NORTHPORT PIER   0740   35                 1025.7R
KEWAUNEE LAKESHO 0754   31     300/  4/  5 1024.8F
SHEBOYGAN LAKESH 0800   42     350/  9/ 10 1025.7S
PORT WASHINGTON  0730   43     330/  3/  7 1026.1R
MILWAUKEE LAKESH 0800   43     350/  3/  4   N/A
KENOSHA   LAKESH 0800   42                 1023.7
$$

TC  - TEMPERATURE IN CELSIUS
VSB - VISIBILITY IN STATUTE MILES
WCI - WIND CHILL INDEX
HX  - HEAT INDEX





USA.gov is the U.S. government's official web portal to all federal, state and local government web resources and services.